Miscellaneous Local Product
Issued by NWS North Platte, NE

Home | Current Version | Previous Version | Graphics & Text | Print | Product List | Glossary On
Versions: 1 2 3 4 5 6 7 8 9 10 11 12 13 14 15 16 17 18 19 20 21 22 23 24 25 26 27 28 29 30 31 32 33 34 35 36 37 38 39 40 41 42 43 44 45 46 47 48 49 50
034
AXUS43 KLBF 110610
MISLBF


WESTERN AND NORTH CENTRAL NEBRASKA HOURLY WEATHER ROUNDUP
NATIONAL WEATHER SERVICE NORTH PLATTE NE
1200 AM CST THU FEB 11 2016

NOTE: "FAIR" INDICATES FEW OR NO CLOUDS BELOW 12,000 FEET WITH NO
SIGNIFICANT WEATHER AND/OR OBSTRUCTIONS TO VISIBILITY.

NOTE: STATIONS NOT REPORTING VARIABLES SUCH AS SKY/WEATHER OR
PRESSURE ARE PROVIDED BY THE NEBRASKA DEPARTMENT OF
ROADS...RAWS...AND APRS NETWORKS...AND ARE NOT UNDER
NATIONAL WEATHER SERVICE QUALITY CONTROL.

...OBSERVATIONS IN AND NEAR THE EASTERN PANHANDLE OF NEBRASKA...

CITY           SKY/WX    TMP DP  RH WIND       PRES   REMARKS
PINE RIDGE     CLEAR     28  25  88 CALM      30.13R
CHADRON        CLEAR     27  23  85 W6        30.13R WCI  20
ALLIANCE       CLEAR     27  23  85 CALM      30.12R
SIDNEY         CLEAR     33  25  72 W12       30.15R WCI  24
CRESCENT LAKE    N/A     32  27  80 CALM        N/A
BIG SPRINGS      N/A     35  30  82 CALM        N/A
$$

...OBSERVATIONS IN NORTH CENTRAL NEBRASKA...

CITY           SKY/WX    TMP DP  RH WIND       PRES   REMARKS
VALENTINE      CLOUDY    28  25  88 N13       30.17R WCI  17
THEDFORD       CLOUDY    30  28  93 N7        30.15R WCI  23
AINSWORTH      CLOUDY    30  27  87 N14       30.16R WCI  20
O`NEILL        CLOUDY    25  23  91 N3        30.16S
ORD            CLOUDY    29  25  85 N7        30.14R WCI  22
BROKEN BOW     CLOUDY    29  26  89 N8        30.14R WCI  21
VALENTINE NWR    N/A     29  27  91 N8          N/A  WCI  21
BUTTE            N/A     22  20  93 CALM        N/A
HALSEY           N/A     30  27  90 CALM        N/A
CHAMBERS         N/A     26  22  84 E5          N/A  WCI  20
EWING            N/A     22  20  91 CALM        N/A
$$

...OBSERVATIONS IN SOUTHWEST NEBRASKA AND FAR NORTHEAST COLORADO...

CITY           SKY/WX    TMP DP  RH WIND       PRES   REMARKS
HOLYOKE        FAIR      41  28  60 NW10      30.15R
IMPERIAL       CLOUDY    36  27  69 NW8       30.15R WCI  30
OGALLALA       CLOUDY    31  25  80 W7        30.14R WCI  24
NORTH PLATTE   CLOUDY    34  27  75 CALM      30.13R
MCCOOK         CLEAR     36  29  75 NE12      30.12R WCI  28
LEXINGTON      CLOUDY    32  27  83 NE8       30.13R WCI  25
PAXTON           N/A     38  32  79 CALM        N/A
STAPLETON        N/A     30  27  88 CALM        N/A
GOTHENBURG       N/A     36  29  74 N3          N/A
CALLAWAY         N/A     32  28  86 N7          N/A  WCI  26
$$

...OBSERVATIONS IN CENTRAL LINCOLN COUNTY AREA...

CITY           SKY/WX    TMP DP  RH WIND       PRES   REMARKS
N.P. AIRPORT   CLOUDY    34  27  75 CALM      30.13R
N.P. DOWNTOWN    N/A     34  29  82 CALM        N/A
N.P. SOUTHEAST   N/A     33  27  80 CALM        N/A
N.P. HILLCREST   N/A     33  29  86 NE16        N/A  WCI  22
$$

...SOME OBSERVATIONS FROM AROUND THE REGION...

CITY           SKY/WX    TMP DP  RH WIND       PRES   REMARKS
DENVER         CLOUDY    42  14  32 S7        30.19S
LARAMIE        CLOUDY    25  16  68 W9        30.23S WCI  15
CHEYENNE       CLOUDY    36  16  44 W8        30.19S WCI  30
SCOTTSBLUFF    CLEAR     32  25  75 N6        30.15R WCI  26
RAPID CITY     CLOUDY    29  27  92 SE8       30.13F WCI  21
BISMARCK       CLOUDY    17  10  74 SE7       30.19F WCI   8
PIERRE         CLOUDY    23  20  88 CALM      30.21R
WINNER         CLOUDY    27  22  81 NW7       30.18R WCI  19
SIOUX FALLS    CLOUDY    13   5  70 E6        30.24R WCI   4
OMAHA          CLOUDY    20  15  81 NE8       30.20R WCI  10
GRAND ISLAND   CLOUDY    26  23  88 N7        30.15R WCI  18
KANSAS CITY    CLEAR     25  21  85 NE12      30.09R WCI  14
WICHITA        PTCLDY    40  28  62 NW8       30.01R WCI  34
OKLAHOMA CITY  CLEAR     48  30  49 NW3       29.97S
LIBERAL        CLOUDY    36  18  48 CALM      30.09R
HAYS           CLOUDY    43  27  52 NE14G20   30.09R
GOODLAND       CLOUDY    38  27  64 NW12      30.14R WCI  30
$$




USA.gov is the U.S. government's official web portal to all federal, state and local government web resources and services.